Laramie, WY

5:55 AM MST on November 13, 2019 (GMT -0700)
Laramie Regional

Weather History for KLAR - October, 2019

Change the Weather History Date:

Sunday, October 20, 2019

  Actual Average Record
Temperature  
Mean Temperature 29 °F -  
Max Temperature 32 °F 56 °F 72 °F (1950)
Min Temperature 26 °F 25 °F 7 °F (1976)
Degree Days  
Heating Degree Days 36    
Moisture  
Dew Point 21 °F    
Average Humidity 73    
Maximum Humidity 89    
Minimum Humidity 61    
Precipitation  
Precipitation 0.02 in - - ()
Sea Level Pressure  
Sea Level Pressure 29.77 in    
Wind  
Wind Speed 20 mph (WNW)    
Max Wind Speed 37 mph    
Max Gust Speed 47 mph    
Visibility 7 miles    
Events Fog , Snow    
Averages and records for this station are not official NWS values.
T = Trace of Precipitation, MM = Missing Value Source: NWS Daily Summary

Daily Weather History Graph

Daily Weather History Graph

Search for Another Location

Airport or City:

Astronomy

Oct. 20, 2019 Rise Set
Actual Time 7:19 AM MDT 6:14 PM MDT
Civil Twilight 6:51 AM MDT 6:42 PM MDT
Nautical Twilight 6:19 AM MDT 7:14 PM MDT
Astronomical Twilight 5:47 AM MDT 7:46 PM MDT
Moon 11:23 PM MDT (10/20) 1:52 PM MDT (10/20)
Length of Visible Light 11h 50m
Length of Day
10h 54m
Waning Gibbous, 58% of the Moon is Illuminated
Oct 20
Waning Gibbous
Oct 21
Last Quarter
Oct 27
New
Nov 4
First Quarter
Nov 12
Full

Hourly Weather History & Observations

Time (MDT) Temp. Windchill Dew Point Humidity Pressure Visibility Wind Dir Wind Speed Gust Speed Precip Events Conditions
12:17 AM 32.0 °F 21.2 °F 27.0 °F 82% 29.66 in 1.8 mi West 16.1 mph - 0.00 in Snow Light Snow
12:25 AM 32.0 °F 23.0 °F 28.0 °F 85% 29.66 in 1.2 mi West 11.5 mph - 0.00 in Snow Light Snow
12:44 AM 30.9 °F 22.2 °F 28.0 °F 89% 29.65 in 3.0 mi NNW 10.4 mph - 0.00 in Snow Light Snow
12:53 AM 30.9 °F 21.7 °F 28.0 °F 89% 29.56 in 1.5 mi NW 11.5 mph - 0.01 in Snow Light Snow
1:40 AM 30.0 °F 20.5 °F 23.0 °F 75% 29.68 in 9.0 mi WNW 11.5 mph - 0.01 in   Overcast
1:53 AM 30.0 °F 26.5 °F 23.0 °F 75% 29.57 in 10.0 mi West 3.5 mph - 0.01 in   Overcast
2:53 AM 28.9 °F 16.1 °F 17.1 °F 61% 29.59 in 10.0 mi WSW 19.6 mph 29.9 mph N/A   Overcast
3:53 AM 27.0 °F 11.9 °F 16.0 °F 63% 29.59 in 10.0 mi WSW 25.3 mph 32.2 mph N/A   Clear
4:53 AM 27.0 °F 21.6 °F 15.1 °F 61% 29.59 in 10.0 mi Variable 4.6 mph - N/A   Overcast
5:53 AM 26.1 °F 10.4 °F 16.0 °F 66% 29.58 in 10.0 mi West 26.5 mph 35.7 mph N/A   Clear
6:53 AM 26.1 °F 10.7 °F 16.0 °F 66% 29.60 in 10.0 mi West 25.3 mph 35.7 mph N/A   Clear
7:53 AM 27.0 °F 12.8 °F 16.0 °F 63% 29.61 in 10.0 mi West 21.9 mph 33.4 mph 0.00 in   Overcast
8:53 AM 27.0 °F 12.2 °F 18.0 °F 69% 29.63 in 10.0 mi West 24.2 mph 34.5 mph 0.00 in   Overcast
9:53 AM 28.0 °F 11.5 °F 19.0 °F 69% 29.65 in 10.0 mi West 33.4 mph 40.3 mph N/A   Overcast
10:53 AM 28.9 °F 13.7 °F 19.0 °F 67% 29.62 in 10.0 mi West 28.8 mph 38.0 mph N/A   Overcast
11:53 AM 30.0 °F 14.2 °F 19.0 °F 64% 29.63 in 10.0 mi West 33.4 mph 39.1 mph N/A   Overcast
12:53 PM 30.9 °F 14.9 °F 19.0 °F 61% 29.69 in 10.0 mi West 36.8 mph 47.2 mph 0.00 in   Overcast
1:53 PM 28.9 °F 12.3 °F 21.0 °F 72% 29.73 in 3.0 mi West 35.7 mph 42.6 mph 0.00 in Snow Light Snow
2:00 PM 28.9 °F 12.5 °F 21.0 °F 72% 29.74 in 2.0 mi West 34.5 mph 44.9 mph 0.00 in Snow Light Snow
2:21 PM 28.9 °F 12.8 °F 21.9 °F 75% 29.75 in 1.8 mi WNW 33.4 mph 46.0 mph 0.00 in Snow Light Snow
2:53 PM 28.9 °F 13.2 °F 23.0 °F 78% 29.79 in 2.5 mi WNW 31.1 mph 40.3 mph 0.00 in Snow Light Snow
3:13 PM 30.0 °F 14.9 °F 23.0 °F 75% 29.79 in 3.0 mi WNW 29.9 mph 36.8 mph 0.00 in Snow Light Snow
3:53 PM 30.9 °F 16.2 °F 21.0 °F 67% 29.83 in 10.0 mi NW 29.9 mph 41.4 mph 0.00 in   Overcast
4:53 PM 30.0 °F 15.4 °F 19.9 °F 66% 29.86 in 10.0 mi WNW 27.6 mph 42.6 mph N/A   Partly Cloudy
5:53 PM 30.9 °F 15.9 °F 19.0 °F 61% 29.88 in 10.0 mi WNW 31.1 mph 41.4 mph N/A   Scattered Clouds
6:53 PM 28.9 °F 14.8 °F 19.0 °F 67% 29.94 in 10.0 mi WNW 24.2 mph 34.5 mph N/A   Overcast
7:53 PM 28.0 °F 13.6 °F 17.1 °F 63% 29.95 in 10.0 mi WNW 24.2 mph - N/A   Partly Cloudy
8:53 PM 28.0 °F 15.3 °F 16.0 °F 61% 29.97 in 10.0 mi WNW 18.4 mph - N/A   Clear
9:53 PM 28.0 °F 17.5 °F 17.1 °F 63% 29.97 in 10.0 mi West 12.7 mph - N/A   Mostly Cloudy
10:50 PM 26.6 °F 14.3 °F 21.2 °F 80% 29.94 in 10.0 mi WNW 16.1 mph - N/A   Overcast
10:53 PM 27.0 °F 14.7 °F 21.9 °F 81% 29.97 in 10.0 mi WNW 16.1 mph - N/A   Overcast
11:04 PM 27.0 °F 13.9 °F 23.0 °F 85% 29.93 in 1.5 mi NW 18.4 mph 24.2 mph 0.00 in Snow Light Snow
11:22 PM 27.0 °F 13.2 °F 23.0 °F 85% 29.93 in 0.8 mi NW 20.7 mph 28.8 mph 0.00 in Snow Light Snow
11:27 PM 26.1 °F 11.3 °F 23.0 °F 88% 29.93 in 0.5 mi NW 23.0 mph 28.8 mph 0.00 in Fog , Snow Snow
11:32 PM 26.1 °F 12.7 °F 23.0 °F 88% 29.93 in 0.8 mi NW 18.4 mph - 0.00 in Snow Light Snow
11:34 PM 26.1 °F 12.3 °F 23.0 °F 88% 29.93 in 1.0 mi WNW 19.6 mph - 0.00 in Snow Light Snow
11:40 PM 26.1 °F 12.7 °F 21.9 °F 84% 29.93 in 4.0 mi WNW 18.4 mph - 0.00 in Snow Light Snow
11:53 PM 27.0 °F 14.3 °F 21.9 °F 81% 29.95 in 9.0 mi WNW 17.3 mph - 0.00 in   Overcast